Location: Altenauer Silberh�tten
(51.8167°N, 10.4500°E)
Time: 09:18:10
(UTC+00:00)

Daily predictions for brighter satellites

Satellite Brightness Start Highest point End
(mag) Time Altitude Azimuth Time Altitude Azimuth Time Altitude Azimuth
Cosmos 372 Rocket 4.1 15:37:48 10° NNW 15:42:58 55° ENE 15:48:07 10° SE
Cosmos 2322 Rocket 3.3 15:38:38 10° NNW 15:43:10 24° NE 15:47:42 10° E
Cosmos 1937 Rocket 3.5 15:39:01 10° NNW 15:44:23 80° ENE 15:49:42 10° SSE
SJ 16-02 4.3 15:41:24 10° NW 15:44:27 19° W 15:47:29 10° SW
Meteor PRIRODA 3.9 15:42:08 10° SE 15:45:37 46° ENE 15:49:06 10° N
Lacrosse 5 rocket 1.2 15:41:58 10° WNW 15:45:47 67° NNE 15:49:48 10° ESE
Cosmos 1980 Rocket 2.2 15:41:32 10° NNW 15:47:13 68° NE 15:52:49 10° SE
USA 234 3.3 15:40:56 10° ESE 15:47:26 72° NNE 15:53:57 10° WNW
YAOGAN 6 4.0 15:45:28 10° S 15:48:58 43° W 15:52:32 10° NNW
Cosmos 2026 Rocket 4.1 15:45:19 10° N 15:51:20 52° ENE 15:57:13 10° SSE
NOSS 2-2 (D) 4.4 15:47:16 10° NW 15:52:13 83° SW 15:59:12 10° SE
Cosmos 1666 Rocket 4.4 15:48:22 10° N 15:52:14 28° ENE 15:56:03 10° SE
Cosmos 1809 Rocket 4.5 15:47:01 10° N 15:53:04 59° ENE 15:59:03 10° SSE
Cosmos 1125 Rocket 4.5 15:49:03 10° N 15:53:28 26° NE 15:57:51 10° ESE
Cosmos 2195 Rocket 4.5 15:49:51 10° N 15:56:00 65° ENE 16:02:10 10° SSE
Cosmos 1634 Rocket 4.5 15:50:14 10° SSE 15:56:05 41° E 16:01:56 10° NNE
Cosmos 2369 3.8 15:53:05 10° NNW 15:58:52 86° WSW 16:04:35 10° SSE
H-2A R/B 2.8 15:56:07 10° ESE 16:00:27 29° ENE 16:04:43 10° N
Cosmos 1812 4.0 16:00:02 10° SE 16:03:03 22° E 16:06:05 10° NE
ATLAS CENTAUR R/B 3.4 16:00:37 10° WNW 16:04:00 21° NNW 16:07:32 10° NNE
Cosmos 2237 Rocket 4.2 16:02:37 10° N 16:04:00 11° N 16:05:25 10° NNE
SL-16 R/B 2.8 15:59:00 10° NNW 16:04:10 34° NE 16:09:20 10° ESE
MOS 1 Rocket 3.9 15:59:42 10° N 16:04:36 60° WNW 16:09:11 10° SSW
USA 308 2.9 16:00:28 10° WNW 16:04:43 68° N 16:08:58 10° E
Cosmos 2221 3.3 16:01:16 10° SSW 16:05:29 55° WNW 16:09:46 10° N
Okean O Rocket 3.0 16:02:29 10° E 16:05:32 18° ENE 16:08:34 10° NNE
CZ-2C R/B 2.8 16:02:24 10° SSE 16:07:13 87° ENE 16:12:00 10° NNW
Sich 1 3.0 16:03:49 10° N 16:08:06 63° ENE 16:12:24 10° SSE
Cosmos 1500 Rocket 4.1 16:03:44 10° NNW 16:08:09 66° W 16:12:29 10° S
Cosmos 2082 Rocket 2.6 16:04:08 10° S 16:09:30 45° ESE 16:14:51 10° NE
Cosmos 540 Rocket 3.5 16:05:24 10° S 16:10:26 64° ESE 16:15:31 10° NNE
ARGOS 4.1 16:07:16 10° ESE 16:11:38 26° ENE 16:16:01 10° N
FengYun 1-2 T 4.2 16:09:27 10° SSE 16:15:00 77° ENE 16:20:33 10° NNW
COSMOS 2455 3.0 16:10:05 10° SSW 16:15:58 59° ESE 16:21:45 11° NE
SMAP 3.0 16:13:05 10° SSE 16:17:41 65° ENE 16:22:20 10° N
NOAA 6 4.0 16:14:07 10° SSE 16:19:12 68° ENE 16:24:19 10° N
Cosmos 1805 Rocket 3.7 16:16:17 10° NNW 16:20:39 80° W 16:24:58 10° S
Cosmos 2278 3.7 16:15:36 10° NNW 16:21:22 84° ENE 16:27:03 10° SSE
Cosmos 1933 3.3 16:18:40 10° S 16:22:42 86° E 16:26:45 10° NNE
Cosmos 1833 Rocket 2.8 16:17:08 10° SSW 16:22:45 80° WNW 16:28:26 10° NNE
Cosmos 2333 Rocket 3.6 16:19:05 10° NNW 16:23:17 20° NNE 16:26:02 15° ENE
Cosmos 1602 4.1 16:19:41 10° NNW 16:23:33 69° W 16:27:23 10° S
SL-16 R/B 4.3 16:24:24 10° NNW 16:25:52 11° N 16:27:20 10° N
CZ-4B DEB 4.2 16:22:56 10° SSE 16:28:22 65° ENE 16:33:48 10° NNW
CZ-2C R/B 3.6 16:25:19 11° NE 16:29:07 23° E 16:33:13 10° SE
USA 305 2.8 16:24:51 10° WNW 16:29:08 80° NNE 16:32:51 13° ESE
Cosmos 1655 Rocket 4.5 16:24:31 10° N 16:30:28 38° ENE 16:36:20 10° SE
Cosmos 2219 Rocket 3.6 16:27:26 10° NNW 16:31:22 19° NNE 16:33:20 16° NE
Cosmos 1356 Rocket 4.4 16:27:57 10° N 16:31:27 25° ENE 16:34:57 10° ESE
CZ-4B R/B 3.6 16:29:57 10° S 16:33:47 54° WSW 16:37:28 10° NNW
Cosmos 1500 3.2 16:30:04 10° NNW 16:33:50 79° W 16:37:33 10° S
Meteor 1-14 Rocket 4.3 16:28:10 10° N 16:34:01 71° ENE 16:39:58 10° SSE
Cosmos 44 Rocket 3.3 16:30:43 10° NW 16:35:43 90° ESE 16:40:30 10° SE
Meteor 2-16 Rocket 4.4 16:32:06 10° N 16:38:14 69° ENE 16:44:20 10° SSE
COSMOS 2406 3.4 16:36:39 10° SW 16:42:24 75° WNW 16:48:00 11° NNE
Cosmos 1814 Rocket 4.0 16:38:12 10° S 16:43:18 59° ESE 16:47:38 14° NNE
Cosmos 921 Rocket 3.9 16:40:56 10° SSE 16:44:33 29° E 16:45:57 23° ENE
Cosmos 1570 Rocket 4.1 16:45:03 10° S 16:50:10 59° ESE 16:54:14 16° NE
MOS 1-B Rocket 4.3 16:44:46 10° NNE 16:50:35 49° E 16:57:12 10° S
Cosmos 2298 Rocket 4.0 16:48:52 10° NNW 16:54:13 71° ENE 16:59:32 10° SSE
CZ-4B R/B 3.1 16:49:11 10° SE 16:54:27 59° ENE 16:59:40 10° N
Cosmos 371 Rocket 4.2 16:50:26 10° N 16:54:31 26° NE 16:55:08 25° ENE
USA 267 3.4 16:50:26 20° ENE 16:55:01 59° SE 17:01:28 10° SW
CZ-2D R/B 3.1 16:52:54 10° SSE 16:56:43 83° ENE 17:00:33 10° NNW
MOS 1-B 4.3 16:53:33 10° SSE 16:59:20 82° ENE 17:05:10 10° NNW
ATLAS CENTAUR R/B 2.5 16:50:51 10° WSW 16:59:28 85° NNW 17:01:31 30° ENE
Cosmos 1939 Rocket 4.0 16:55:33 10° S 16:59:30 46° W 17:03:25 10° NNW
COSMO-SKYMED 1 3.1 16:59:10 28° ENE 17:00:35 35° E 17:04:34 10° SSE
Cosmos 1633 Rocket 3.1 16:56:22 10° NNW 17:00:46 84° W 17:05:10 10° S
USA 306 2.9 16:57:10 10° WNW 17:01:26 83° SSW 17:03:51 25° ESE
Cosmos 1666 2.9 16:58:50 10° NNW 17:02:33 67° W 17:06:14 10° S
Cosmos 1151 Rocket 2.9 16:58:14 10° S 17:02:34 82° E 17:06:59 10° NNE
Meteor 1-27 Rocket 4.4 16:58:14 10° SSE 17:02:54 29° E 17:04:01 27° ENE
Cosmos 1782 3.6 17:00:51 10° SSW 17:04:44 51° WNW 17:08:39 10° N
APEX 4.2 17:01:54 10° S 17:04:23 25° SE 17:04:23 25° SE
Cosmos 2360 Rocket 2.5 16:59:51 10° NNW 17:05:16 43° NE 17:08:17 24° ESE
Meteor 2-6 Rocket 4.2 17:00:04 10° S 17:05:40 63° E 17:11:09 10° NNE
ISS -0.4 17:05:13 10° WSW 17:06:18 11° SW 17:07:23 10° SSW
SeaSat 1 4.2 17:02:53 10° NNE 17:06:52 25° NW 17:10:49 10° W
SJ-11-01 4.3 17:02:38 10° SSE 17:07:17 59° ENE 17:11:57 10° N
Cosmos 2237 4.3 17:02:57 10° NNW 17:08:36 56° NE 17:13:44 12° SE
PAYLOAD B 4.3 17:03:48 10° SSE 17:09:25 81° WSW 17:15:03 10° NNW
Cosmos 1900 4.3 17:04:51 10° SSW 17:09:41 66° SE 17:11:53 32° NE
YAOGAN 1 3.6 17:11:21 28° NE 17:11:21 28° NE 17:14:06 10° N
Cosmos 1818 4.3 17:05:46 10° NW 17:11:08 57° SW 17:16:27 10° SSE
Cosmos 1536 3.9 17:14:09 10° N 17:16:30 29° NNE 17:16:30 29° NNE
ATLAS 5 CENTAUR R/B 2.0 17:10:40 10° NW 17:18:21 86° SW 17:19:38 36° SE
Cosmos 2279 Rocket 4.0 17:12:30 10° S 17:18:44 86° W 17:24:59 10° N
Cosmos 2266 Rocket 3.9 17:13:23 10° N 17:19:48 74° ENE 17:26:14 10° SSE
Cosmos 841 Rocket 4.2 17:15:10 10° SW 17:20:10 50° WNW 17:24:31 14° NNE
Meteor 2-15 4.3 17:15:01 10° S 17:21:04 67° E 17:27:06 10° NNE
ERBS 3.2 17:18:12 10° WNW 17:20:46 34° N 17:20:46 34° N
USA 307 3.0 17:17:44 10° WNW 17:21:59 72° SSW 17:23:33 37° SE
CZ-4C R/B 4.0 17:15:13 10° NW 17:22:03 46° WSW 17:29:56 10° S
Lacrosse 5 rocket 2.9 17:21:11 10° WNW 17:24:42 32° SW 17:28:24 10° SSE
SL-08 RB Rocket 3.7 17:21:24 10° SSE 17:25:57 61° ENE 17:30:29 10° N
NOSS 3-4 (A) 4.1 17:19:57 10° NW 17:26:18 47° NNE 17:28:52 34° ENE
NOSS 3-4 (C) 4.1 17:20:03 10° NW 17:26:23 46° NNE 17:28:56 34° ENE
Cosmos 1933 Rocket 3.4 17:23:33 10° N 17:27:55 72° ENE 17:32:14 10° SSE
Cosmos 2322 Rocket 2.1 17:22:21 10° NNW 17:28:06 83° ENE 17:33:50 10° SSE
ATLAS 2AS CENTAUR R/B 3.6 17:22:06 10° NW 17:29:00 36° NNE 17:31:19 30° NE
COSMOS 2428 3.7 17:24:07 10° NNW 17:28:43 28° NE 17:28:43 28° NE
Cosmos 2208 Rocket 4.0 17:24:04 10° SSW 17:29:30 87° WNW 17:32:51 25° NNE
Cosmos 2150 Rocket 4.2 17:24:36 10° NNW 17:29:47 69° WSW 17:34:58 10° SSE
USA 234 3.8 17:24:12 10° SE 17:30:38 57° SW 17:37:04 10° WNW
Cosmos 1980 Rocket 4.5 17:26:13 10° NW 17:30:45 25° WSW 17:35:16 10° SSW
Cosmos 1328 Rocket 3.7 17:28:15 10° SSW 17:32:41 72° WNW 17:36:01 17° N
Cosmos 1470 Rocket 3.9 17:29:28 10° NNW 17:33:56 67° W 17:38:22 10° S
Cosmos 1544 3.1 17:30:28 10° NNW 17:34:05 75° W 17:37:42 10° S
Cosmos 1125 Rocket 3.8 17:30:47 10° NNW 17:36:00 67° WSW 17:41:14 10° SSE
Cosmos 1867 4.1 17:33:33 10° S 17:38:27 39° ESE 17:38:27 39° ESE
Cosmos 1812 4.2 17:35:01 10° SW 17:38:36 36° WNW 17:41:44 13° N
X-37B 3.3 17:37:24 10° SSW 17:37:49 12° S 17:37:49 12° S
H-2A R/B 2.9 17:34:46 10° S 17:39:42 49° W 17:44:34 10° NNW
Meteor 1-11 Rocket 3.7 17:35:25 10° NNW 17:41:05 85° W 17:46:51 10° S
Okean O Rocket 1.8 17:36:56 10° S 17:41:23 74° WSW 17:45:52 10° NNW
GEOS 3 Rocket 3.6 17:41:55 52° ENE 17:42:45 59° NE 17:47:51 10° NW
Meteor 1-10 Rocket 4.1 17:37:04 10° S 17:42:48 87° ESE 17:47:11 18° NNE
Cosmos 2322 4.2 17:37:54 10° NNW 17:42:44 38° NE 17:42:44 38° NE
ATLAS CENTAUR R/B 3.6 17:41:21 10° NW 17:44:13 17° N 17:44:13 17° N
USA 308 3.3 17:40:27 10° WNW 17:44:38 57° SSW 17:45:22 49° SSE
USA 32 3.9 17:39:34 10° S 17:44:44 66° E 17:46:22 43° NNE
SL-16 R/B 2.8 17:43:02 10° NW 17:48:37 58° WSW 17:54:09 10° S
SKYMED 2 3.5 17:47:47 53° N 17:48:48 83° WNW 17:53:09 10° SSW
IRS-1C Rocket 4.5 17:51:33 45° NNE 17:51:33 45° NNE 17:55:37 10° N
Cosmos 2237 Rocket 3.9 17:46:23 10° NNW 17:49:04 18° NNE 17:49:04 18° NNE
ARGOS 3.5 17:46:09 10° S 17:51:31 65° WSW 17:56:54 10° NNW
Cosmos 2082 Rocket 3.2 17:48:17 10° WSW 17:53:39 42° NW 17:56:57 22° N
CZ-4 R/B 3.8 17:58:56 13° NNW 17:58:56 13° NNW 17:59:25 10° NNW
Cosmos 1244 Rocket 4.5 17:51:36 10° N 17:57:49 57° ENE 17:57:59 56° E
COSMOS 2455 3.9 17:56:32 10° WSW 18:02:12 41° NW 18:04:54 27° NNE
Feng Yun 1-1 Rocket 4.5 18:00:28 10° S 18:06:22 75° WSW 18:12:13 10° NNW
Cosmos 2333 Rocket 2.3 18:02:59 10° NNW 18:08:05 58° NNE 18:08:05 58° NNE
USA 305 4.0 18:04:51 10° WNW 18:08:48 39° SW 18:08:52 39° SSW
CZ-2C R/B 3.0 18:06:50 25° N 18:09:50 61° WNW 18:14:55 10° SSW
SL-16 R/B 4.3 18:09:22 10° NNW 18:11:02 14° N 18:11:02 14° N
Cosmos 2219 Rocket 2.8 18:10:56 10° NNW 18:15:05 44° N 18:15:05 44° N
Aureole 3 Rocket 3.8 18:14:14 10° SSW 18:19:04 78° WNW 18:26:01 10° N
Cosmos 921 Rocket 4.3 18:18:48 10° SW 18:22:44 37° WNW 18:22:47 37° WNW
Nadezhda 2 Rocket 4.4 18:16:51 10° N 18:23:21 85° E 18:24:23 65° SSE
Cosmos 371 Rocket 4.4 18:30:32 10° NNW 18:33:50 40° NW 18:33:50 40° NW
COSMO-SKYMED 1 4.2 18:36:23 31° NW 18:36:41 31° WNW 18:40:31 10° SW
USA 267 3.2 18:37:47 69° N 18:38:11 71° NNW 18:44:42 10° W
Meteor 1-27 Rocket 4.4 18:40:39 10° SSW 18:45:59 50° WNW 18:46:30 48° NW
Cosmos 2360 Rocket 3.2 18:43:59 10° NW 18:49:19 43° WSW 18:50:08 41° SW
COSMOS 2428 4.4 19:08:11 10° NNW 19:10:45 28° NW 19:10:45 28° NW
NOSS 3-4 (A) 4.2 19:10:50 10° NW 19:16:19 58° WNW 19:16:19 58° WNW
NOSS 3-4 (C) 4.2 19:10:56 10° NW 19:16:23 58° WNW 19:16:23 58° WNW
ATLAS 2AS CENTAUR R/B 3.6 19:13:45 10° NW 19:18:44 44° NNW 19:18:44 44° NNW
Cosmos 2333 Rocket 4.5 19:47:49 10° NW 19:50:07 20° WNW 19:50:07 20° WNW
